| time (UTC) | temp F | wind direction | speed MPH | gust MPH | rain 1hr in | rain 24hr in | rain mn in | humidity % | barometer mb |
| 20260510230030 | 85 | 118 | 11.0 | 18.0 | 0.00 | 0.00 | 0.00 | 74 | 1012.2 |
| 20260510224525 | 86 | 128 | 11.0 | 17.0 | 0.00 | 0.00 | 0.00 | 71 | 1012.3 |
| 20260510223018 | 88 | 107 | 13.0 | 18.0 | 0.00 | 0.00 | 0.00 | 67 | 1012.4 |
| 20260510221517 | 88 | 108 | 9.0 | 14.0 | 0.00 | 0.00 | 0.00 | 69 | 1012.4 |
| 20260510220025 | 88 | 121 | 8.0 | 14.0 | 0.00 | 0.00 | 0.00 | 69 | 1012.6 |
| 20260510214515 | 88 | 115 | 7.0 | 11.0 | 0.00 | 0.00 | 0.00 | 70 | 1012.6 |
| 20260510213015 | 88 | 120 | 7.0 | 11.0 | 0.00 | 0.00 | 0.00 | 67 | 1012.6 |
| 20260510211525 | 88 | 127 | 7.0 | 13.0 | 0.00 | 0.00 | 0.00 | 68 | 1012.6 |
| 20260510210015 | 88 | 124 | 11.0 | 15.0 | 0.00 | 0.00 | 0.00 | 66 | 1012.7 |
| 20260510204511 | 88 | 115 | 9.0 | 14.0 | 0.00 | 0.00 | 0.00 | 68 | 1012.6 |
| 20260510203011 | 88 | 149 | 12.0 | 15.0 | 0.00 | 0.00 | 0.00 | 68 | 1012.6 |
| 20260510201510 | 87 | 142 | 12.0 | 16.0 | 0.00 | 0.00 | 0.00 | 67 | 1012.5 |
| 20260510200010 | 88 | 164 | 9.0 | 15.0 | 0.00 | 0.00 | 0.00 | 67 | 1012.7 |
| 20260510194507 | 87 | 134 | 7.0 | 14.0 | 0.00 | 0.00 | 0.00 | 69 | 1012.9 |
| 20260510193006 | 87 | 157 | 8.0 | 12.0 | 0.00 | 0.00 | 0.00 | 70 | 1013.0 |
| 20260510191516 | 86 | 150 | 9.0 | 15.0 | 0.00 | 0.00 | 0.00 | 71 | 1013.3 |
| 20260510190003 | 86 | 105 | 7.0 | 14.0 | 0.00 | 0.00 | 0.00 | 72 | 1013.2 |
| 20260510184501 | 86 | 123 | 10.0 | 16.0 | 0.00 | 0.00 | 0.00 | 73 | 1013.4 |
| 20260510183107 | 85 | 126 | 8.0 | 15.0 | 0.00 | 0.00 | 0.00 | 73 | 1013.7 |
| 20260510181558 | 85 | 111 | 9.0 | 15.0 | 0.00 | 0.00 | 0.00 | 73 | 1013.8 |
| 20260510180103 | 84 | 123 | 8.0 | 14.0 | 0.00 | 0.00 | 0.00 | 76 | 1013.9 |
| 20260510174605 | 84 | 116 | 7.0 | 11.0 | 0.00 | 0.00 | 0.00 | 77 | 1014.2 |
| 20260510173057 | 83 | 119 | 6.0 | 11.0 | 0.00 | 0.00 | 0.00 | 77 | 1014.5 |
| 20260510171549 | 82 | 107 | 7.0 | 12.0 | 0.00 | 0.00 | 0.00 | 80 | 1014.7 |
| 20260510170148 | 82 | 105 | 9.0 | 14.0 | 0.00 | 0.00 | 0.00 | 81 | 1014.8 |
| 20260510164547 | 82 | 101 | 4.0 | 12.0 | 0.00 | 0.00 | 0.00 | 81 | 1015.0 |
| 20260510163043 | 81 | 89 | 6.0 | 12.0 | 0.00 | 0.00 | 0.00 | 84 | 1014.9 |
| 20260510161541 | 80 | 75 | 6.0 | 11.0 | 0.00 | 0.00 | 0.00 | 86 | 1015.0 |
| 20260510160046 | 79 | 84 | 6.0 | 12.0 | 0.00 | 0.00 | 0.00 | 87 | 1015.2 |
| 20260510154550 | 78 | 85 | 6.0 | 12.0 | 0.00 | 0.00 | 0.00 | 89 | 1015.3 |
| 20260510153033 | 77 | 84 | 3.0 | 11.0 | 0.00 | 0.00 | 0.00 | 95 | 1015.2 |
| 20260510151528 | 75 | 83 | 6.0 | 11.0 | 0.00 | 0.00 | 0.00 | 97 | 1015.4 |
| 20260510150026 | 74 | 78 | 7.0 | 13.0 | 0.00 | 0.00 | 0.00 | 99 | 1015.4 |
| 20260510144536 | 74 | 86 | 6.0 | 10.0 | 0.00 | 0.00 | 0.00 | 100 | 1015.3 |
| 20260510143036 | 74 | 48 | 3.0 | 5.0 | 0.00 | 0.00 | 0.00 | 100 | 1015.2 |
| 20260510141521 | 73 | 29 | 3.0 | 6.0 | 0.00 | 0.00 | 0.00 | 100 | 1015.1 |
| 20260510140018 | 73 | 78 | 3.0 | 5.0 | 0.00 | 0.00 | 0.00 | 100 | 1014.7 |
| 20260510134519 | 73 | 54 | 2.0 | 4.0 | 0.00 | 0.00 | 0.00 | 100 | 1014.6 |
| 20260510133016 | 72 | 43 | 2.0 | 5.0 | 0.00 | 0.00 | 0.00 | 100 | 1014.4 |
| 20260510131513 | 72 | 61 | 2.0 | 4.0 | 0.00 | 0.00 | 0.00 | 99 | 1013.9 |
| 20260510130013 | 71 | 20 | 0.0 | 3.0 | 0.00 | 0.00 | 0.00 | 100 | 1013.6 |
| 20260510124509 | 71 | 42 | 2.0 | 4.0 | 0.00 | 0.00 | 0.00 | 99 | 1013.4 |
| 20260510123010 | 70 | 134 | 0.0 | 3.0 | 0.00 | 0.00 | 0.00 | 99 | 1013.2 |
| 20260510121505 | 69 | 134 | 2.0 | 4.0 | 0.00 | 0.00 | 0.00 | 99 | 1012.7 |
| 20260510120002 | 69 | 134 | 2.0 | 4.0 | 0.00 | 0.00 | 0.00 | 99 | 1012.3 |
| 20260510114600 | 68 | 136 | 2.0 | 4.0 | 0.00 | 0.00 | 0.00 | 99 | 1012.1 |
| 20260510113104 | 68 | 117 | 1.0 | 3.0 | 0.00 | 0.00 | 0.00 | 98 | 1012.0 |
| 20260510111557 | 68 | 192 | 0.0 | 2.0 | 0.00 | 0.00 | 0.00 | 98 | 1011.9 |
| 20260510110056 | 68 | 192 | 0.0 | 2.0 | 0.00 | 0.00 | 0.00 | 98 | 1011.7 |
| 20260510104602 | 68 | 192 | 0.0 | 1.0 | 0.00 | 0.00 | 0.00 | 98 | 1011.6 |
| 20260510103054 | 68 | 192 | 1.0 | 1.0 | 0.00 | 0.00 | 0.00 | 98 | 1011.6 |
| 20260510101553 | 69 | 192 | 0.0 | 2.0 | 0.00 | 0.00 | 0.00 | 98 | 1011.4 |
| 20260510100053 | 69 | 192 | 1.0 | 4.0 | 0.00 | 0.00 | 0.00 | 97 | 1011.5 |
| 20260510094602 | 69 | 192 | 2.0 | 5.0 | 0.00 | 0.00 | 0.00 | 97 | 1011.4 |
| 20260510093111 | 69 | 192 | 2.0 | 5.0 | 0.00 | 0.00 | 0.00 | 97 | 1011.5 |
| 20260510091549 | 69 | 148 | 1.0 | 3.0 | 0.00 | 0.00 | 0.00 | 96 | 1011.8 |
| 20260510090148 | 69 | 148 | 0.0 | 3.0 | 0.00 | 0.00 | 0.00 | 96 | 1011.8 |
| 20260510084546 | 70 | 148 | 2.0 | 5.0 | 0.00 | 0.00 | 0.00 | 95 | 1011.8 |
| 20260510083045 | 70 | 80 | 0.0 | 2.0 | 0.00 | 0.00 | 0.00 | 94 | 1012.0 |
| 20260510081544 | 70 | 80 | 0.0 | 1.0 | 0.00 | 0.00 | 0.00 | 94 | 1011.9 |
| 20260510080043 | 70 | 80 | 1.0 | 3.0 | 0.00 | 0.00 | 0.00 | 94 | 1011.9 |
| 20260510074544 | 70 | 80 | 0.0 | 0.0 | 0.00 | 0.00 | 0.00 | 94 | 1011.7 |
| 20260510073045 | 70 | 80 | 2.0 | 4.0 | 0.00 | 0.00 | 0.00 | 94 | 1011.6 |
| 20260510071549 | 70 | 148 | 3.0 | 5.0 | 0.00 | 0.00 | 0.00 | 94 | 1011.5 |
| 20260510070039 | 71 | 130 | 3.0 | 7.0 | 0.00 | 0.00 | 0.00 | 94 | 1011.5 |
| 20260510064538 | 71 | 149 | 5.0 | 9.0 | 0.00 | 0.00 | 0.00 | 94 | 1011.5 |
| 20260510063036 | 71 | 117 | 4.0 | 7.0 | 0.00 | 0.00 | 0.00 | 94 | 1011.8 |
| 20260510061537 | 71 | 121 | 3.0 | 7.0 | 0.00 | 0.00 | 0.00 | 94 | 1011.9 |
| 20260510060032 | 71 | 113 | 3.0 | 6.0 | 0.00 | 0.00 | 0.00 | 93 | 1012.0 |
| 20260510054530 | 72 | 142 | 3.0 | 7.0 | 0.00 | 0.00 | 0.00 | 92 | 1012.0 |
| 20260510053047 | 73 | 144 | 5.0 | 10.0 | 0.00 | 0.00 | 0.00 | 91 | 1011.9 |
| 20260510051525 | 73 | 147 | 8.0 | 12.0 | 0.00 | 0.00 | 0.00 | 91 | 1011.8 |
| 20260510050028 | 73 | 140 | 9.0 | 15.0 | 0.00 | 0.00 | 0.00 | 90 | 1011.7 |
| 20260510044521 | 74 | 121 | 10.0 | 15.0 | 0.00 | 0.00 | 0.00 | 91 | 1011.9 |
| 20260510043036 | 73 | 107 | 10.0 | 13.0 | 0.00 | 0.00 | 0.00 | 92 | 1011.9 |
| 20260510041525 | 73 | 108 | 8.0 | 12.0 | 0.00 | 0.00 | 0.00 | 91 | 1012.0 |
| 20260510040032 | 74 | 111 | 7.0 | 13.0 | 0.00 | 0.00 | 0.00 | 89 | 1011.9 |
| 20260510034518 | 75 | 103 | 7.0 | 10.0 | 0.00 | 0.00 | 0.00 | 89 | 1011.7 |
| 20260510033017 | 74 | 98 | 7.0 | 11.0 | 0.00 | 0.00 | 0.00 | 89 | 1011.6 |
| 20260510031522 | 75 | 104 | 0.0 | 7.0 | 0.00 | 0.00 | 0.00 | 89 | 1010.9 |
| 20260510030017 | 76 | 205 | 4.0 | 7.0 | 0.00 | 0.00 | 0.00 | 85 | 1010.2 |
| 20260510024517 | 77 | 122 | 0.0 | 2.0 | 0.00 | 0.00 | 0.00 | 81 | 1010.3 |
| 20260510023013 | 77 | 130 | 4.0 | 10.0 | 0.00 | 0.00 | 0.00 | 81 | 1010.0 |
| 20260510021525 | 76 | 113 | 8.0 | 15.0 | 0.00 | 0.00 | 0.00 | 83 | 1010.0 |
| 20260510020012 | 75 | 115 | 12.0 | 18.0 | 0.00 | 0.00 | 0.00 | 82 | 1009.9 |
| 20260510014511 | 76 | 107 | 10.0 | 17.0 | 0.00 | 0.00 | 0.00 | 82 | 1009.7 |
| 20260510013019 | 76 | 111 | 11.0 | 16.0 | 0.00 | 0.00 | 0.00 | 79 | 1009.5 |
| 20260510011509 | 79 | 86 | 8.0 | 15.0 | 0.00 | 0.00 | 0.00 | 76 | 1009.3 |
| 20260510010008 | 82 | 86 | 0.0 | 3.0 | 0.00 | 0.00 | 0.00 | 85 | 1008.9 |
| 20260510004509 | 83 | 120 | 0.0 | 0.0 | 0.00 | 0.00 | 0.00 | 81 | 1008.9 |
| 20260510003008 | 82 | 120 | 0.0 | 4.0 | 0.00 | 0.00 | 0.00 | 82 | 1008.8 |
| 20260510001509 | 83 | 163 | 0.0 | 4.0 | 0.00 | 0.00 | 0.00 | 79 | 1008.6 |
| 20260510000006 | 83 | 15 | 0.0 | 3.0 | 0.00 | 0.00 | 0.00 | 81 | 1008.7 |
| 20260509234506 | 85 | 46 | 1.0 | 6.0 | 0.00 | 0.00 | 0.00 | 79 | 1008.5 |
| 20260509233005 | 85 | 151 | 2.0 | 5.0 | 0.00 | 0.00 | 0.00 | 75 | 1008.4 |
| 20260509231505 | 86 | 148 | 0.0 | 3.0 | 0.00 | 0.00 | 0.00 | 73 | 1008.6 |